Regional Weather Roundup
Issued by NWS

Home | Current Version | Previous Version | Graphics & Text | Print | Product List | Glossary Off
Versions: 1 2 3 4 5 6 7 8 9 10 11 12 13 14 15 16 17 18 19 20 21 22 23 24 25 26 27 28 29 30 31 32 33 34 35 36 37 38 39 40 41 42 43 44 45 46 47 48 49 50

000
ASUS43 KLSX 160957
RWRMO

WEATHER SUMMARY FOR MISSOURI
NATIONAL WEATHER SERVICE SPRINGFIELD MO
400 AM CST SAT DEC 16 2017

NOTE: "FAIR" INDICATES FEW OR NO CLOUDS BELOW 12,000 FEET WITH NO
       SIGNIFICANT WEATHER AND/OR OBSTRUCTIONS TO VISIBILITY.
       CURRENT SKY AND/OR WEATHER CONDITIONS ARE NOT AVAILABLE FOR
       CHILLICOTHE AND FARMINGTON.

MOZ001>031-035>038-043-044-053-054-161100-
...NORTHERN AND WESTERN MISSOURI...

CITY           SKY/WX    TMP DP  RH WIND       PRES   REMARKS
KANSAS CTY INT CLEAR     37  24  59 SW16      29.86S WCI  28
LEE`S SUMMIT   CLEAR     39  24  55 SW17G24   29.89F WCI  30
ST JOSEPH      CLEAR     38  27  64 S7        29.85F
CHILLICOTHE      N/A     36  24  62 S12       29.86F WCI  28

$$
MOZ066>068-077>081-088>096-101>105-161100-
...SOUTHWEST MISSOURI...

CITY           SKY/WX    TMP DP  RH WIND       PRES   REMARKS
SPRINGFIELD    CLEAR     33  25  72 S13       30.01F WCI  24
JOPLIN         CLEAR     39  25  57 S13       30.01F

$$
MOZ032>034-039>042-045>050-055>058-069>072-161100-
...CENTRAL MISSOURI...

CITY           SKY/WX    TMP DP  RH WIND       PRES   REMARKS
COLUMBIA       NOT AVBL
JEFFERSON CITY CLEAR     36  24  62 S7        29.98F
ROLLA          CLEAR     33  25  72 SW16G25   29.99F WCI  23
SEDALIA        CLEAR     40  26  57 SW18G30   29.94F
WARRENSBURG    CLEAR     36  25  64 S10       29.92F WCI  28

$$
MOZ051-052-059>065-161100-
...EAST CENTRAL MISSOURI...

CITY           SKY/WX    TMP DP  RH WIND       PRES   REMARKS
ST LOUIS INTL  CLEAR     37  26  64 SW15      29.99F WCI  28

$$
MOZ072>076-082>087-097>100-106>115-161100-
...SOUTH CENTRAL AND SOUTHEAST MISSOURI...

CITY           SKY/WX    TMP DP  RH WIND       PRES   REMARKS
CAPE GIRARDEAU PTCLDY    30  26  85 S7        30.12F WCI  23
POPLAR BLUFF   CLOUDY    31  28  89 SW3       30.13S
WEST PLAINS    CLOUDY    31  25  78 S5        30.07F WCI  26

$$



USA.gov is the U.S. government's official web portal to all federal, state and local government web resources and services.